When you browse on this site, cookies collect data to enhance your experience and personalize the content and advertising you see.
Visit our Privacy Policy to learn more. By continuing to use the site, you agree to this use of cookies and data.
  • In Hungary
  • List of Countries
  • For 7 days
  • Water Temperature
  • Weather Map
  • News
  • Weather Widgets
  • user-avatar
    Login

    Hourly Weather Kamianki

    Today, 22 August, Thursday

    Time Temperature Precipitation Wind Pressure Humidity
    00:00 +14°C° 0 mm 1 mps 757 mmHg 84%
    01:00 +13°C° 0 mm 1 mps 757 mmHg 86%
    02:00 +13°C° 0 mm 1 mps 757 mmHg 89%
    03:00 +13°C° 0 mm 1 mps 757 mmHg 91%
    04:00 +13°C° 0 mm 2 mps 757 mmHg 93%
    05:00 +13°C° 0 mm 2 mps 757 mmHg 94%
    06:00 +14°C° 0 mm 2 mps 757 mmHg 89%
    07:00 +15°C° 0 mm 2 mps 757 mmHg 85%
    08:00 +16°C° 0 mm 2 mps 758 mmHg 80%
    09:00 +18°C° 0 mm 2 mps 758 mmHg 71%
    10:00 +19°C° 0 mm 2 mps 758 mmHg 63%
    11:00 +20°C° 0 mm 2 mps 758 mmHg 55%
    12:00 +21°C° 0 mm 2 mps 758 mmHg 52%
    13:00 +23°C° 0 mm 2 mps 758 mmHg 50%
    14:00 +23°C° 0 mm 2 mps 758 mmHg 48%
    15:00 +23°C° 0 mm 2 mps 757 mmHg 50%
    16:00 +23°C° 0 mm 2 mps 757 mmHg 51%
    17:00 +23°C° 0 mm 2 mps 757 mmHg 53%
    18:00 +20°C° 0 mm 2 mps 757 mmHg 58%
    19:00 +18°C° 0 mm 2 mps 757 mmHg 63%
    20:00 +17°C° 0 mm 2 mps 757 mmHg 68%
    21:00 +16°C° 0 mm 2 mps 757 mmHg 70%
    22:00 +16°C° 0 mm 2 mps 757 mmHg 72%
    23:00 +15°C° 0 mm 2 mps 757 mmHg 73%

    Tomorrow, 23 August, Friday

    Time Temperature Precipitation Wind Pressure Humidity
    00:00 +15°C° 0 mm 2 mps 757 mmHg 75%
    01:00 +14°C° 0 mm 2 mps 758 mmHg 77%
    02:00 +14°C° 0 mm 2 mps 758 mmHg 79%
    03:00 +13°C° 0 mm 2 mps 757 mmHg 79%
    04:00 +13°C° 0 mm 2 mps 757 mmHg 79%
    05:00 +13°C° 0 mm 2 mps 757 mmHg 79%
    06:00 +14°C° 0 mm 2 mps 757 mmHg 76%
    07:00 +16°C° 0 mm 2 mps 757 mmHg 72%
    08:00 +17°C° 0 mm 2 mps 758 mmHg 69%
    09:00 +19°C° 0 mm 2 mps 758 mmHg 63%
    10:00 +20°C° 0 mm 2 mps 758 mmHg 57%
    11:00 +23°C° 0 mm 2 mps 758 mmHg 52%
    12:00 +24°C° 0 mm 2 mps 757 mmHg 49%
    13:00 +24°C° 0 mm 2 mps 757 mmHg 46%
    14:00 +25°C° 0 mm 2 mps 757 mmHg 44%
    15:00 +25°C° 0 mm 2 mps 757 mmHg 45%
    16:00 +25°C° 0 mm 2 mps 756 mmHg 47%
    17:00 +25°C° 0 mm 2 mps 756 mmHg 48%
    18:00 +23°C° 0 mm 2 mps 756 mmHg 54%
    19:00 +20°C° 0 mm 2 mps 756 mmHg 61%
    20:00 +18°C° 0 mm 2 mps 756 mmHg 67%
    21:00 +17°C° 0 mm 2 mps 756 mmHg 70%
    22:00 +17°C° 0 mm 2 mps 756 mmHg 73%
    23:00 +16°C° 0 mm 2 mps 756 mmHg 75%

    Day after tomorrow, 24 August, Saturday

    Time Temperature Precipitation Wind Pressure Humidity
    00:00 +15°C° 0 mm 2 mps 756 mmHg 77%
    01:00 +15°C° 0 mm 2 mps 756 mmHg 78%
    02:00 +15°C° 0 mm 2 mps 756 mmHg 80%
    03:00 +14°C° 0 mm 2 mps 756 mmHg 81%
    04:00 +14°C° 0 mm 2 mps 756 mmHg 82%
    05:00 +13°C° 0 mm 3 mps 756 mmHg 83%
    06:00 +14°C° 0 mm 3 mps 755 mmHg 79%
    07:00 +16°C° 0 mm 3 mps 755 mmHg 76%
    08:00 +17°C° 0 mm 3 mps 755 mmHg 73%
    09:00 +19°C° 0 mm 3 mps 755 mmHg 68%
    10:00 +21°C° 0 mm 3 mps 755 mmHg 62%
    11:00 +24°C° 0 mm 3 mps 755 mmHg 57%
    12:00 +24°C° 0 mm 3 mps 755 mmHg 54%
    13:00 +25°C° 0 mm 3 mps 755 mmHg 51%
    14:00 +26°C° 0 mm 3 mps 755 mmHg 48%
    15:00 +26°C° 0 mm 3 mps 754 mmHg 50%
    16:00 +26°C° 0 mm 3 mps 754 mmHg 51%
    17:00 +26°C° 0 mm 3 mps 754 mmHg 53%
    18:00 +24°C° 0 mm 3 mps 754 mmHg 58%
    19:00 +21°C° 0 mm 3 mps 754 mmHg 64%
    20:00 +19°C° 0 mm 3 mps 754 mmHg 69%
    21:00 +18°C° 0 mm 3 mps 754 mmHg 71%
    22:00 +18°C° 0 mm 3 mps 754 mmHg 72%
    23:00 +17°C° 0 mm 3 mps 754 mmHg 73%

    25 August, Sunday

    Time Temperature Precipitation Wind Pressure Humidity
    00:00 +17°C° 0 mm 3 mps 754 mmHg 74%
    01:00 +16°C° 0 mm 3 mps 754 mmHg 75%
    02:00 +16°C° 0 mm 3 mps 754 mmHg 75%
    03:00 +16°C° 0 mm 3 mps 754 mmHg 75%
    04:00 +14°C° 0 mm 3 mps 753 mmHg 75%
    05:00 +14°C° 0 mm 3 mps 753 mmHg 75%
    06:00 +16°C° 0 mm 3 mps 753 mmHg 73%
    07:00 +17°C° 0 mm 3 mps 753 mmHg 71%
    08:00 +18°C° 0 mm 4 mps 753 mmHg 69%
    09:00 +20°C° 0 mm 4 mps 754 mmHg 65%
    10:00 +21°C° 0 mm 4 mps 754 mmHg 60%
    11:00 +23°C° 0 mm 4 mps 754 mmHg 56%
    12:00 +25°C° 0 mm 4 mps 754 mmHg 53%
    13:00 +26°C° 0 mm 4 mps 754 mmHg 50%
    14:00 +27°C° 0 mm 4 mps 754 mmHg 47%
    15:00 +26°C° 0 mm 4 mps 754 mmHg 49%
    16:00 +26°C° 0 mm 4 mps 753 mmHg 51%
    17:00 +26°C° 0 mm 4 mps 753 mmHg 53%
    18:00 +23°C° 0 mm 4 mps 753 mmHg 58%
    19:00 +22°C° 0 mm 3 mps 753 mmHg 63%
    20:00 +20°C° 0 mm 3 mps 753 mmHg 69%
    21:00 +19°C° 0 mm 3 mps 754 mmHg 71%
    22:00 +18°C° 0 mm 3 mps 754 mmHg 73%
    23:00 +18°C° 0 mm 3 mps 754 mmHg 74%

    26 August, Monday

    Time Temperature Precipitation Wind Pressure Humidity
    00:00 +17°C° 0 mm 3 mps 754 mmHg 75%
    01:00 +17°C° 0 mm 3 mps 754 mmHg 75%
    02:00 +17°C° 0 mm 3 mps 754 mmHg 75%
    03:00 +16°C° 0 mm 3 mps 754 mmHg 76%
    04:00 +16°C° 0 mm 3 mps 754 mmHg 76%
    05:00 +14°C° 0 mm 3 mps 754 mmHg 76%
    06:00 +17°C° 0 mm 4 mps 754 mmHg 74%
    07:00 +18°C° 0 mm 4 mps 754 mmHg 71%
    08:00 +19°C° 0 mm 4 mps 754 mmHg 69%
    09:00 +20°C° 0 mm 4 mps 754 mmHg 64%
    10:00 +22°C° 0 mm 5 mps 754 mmHg 59%
    11:00 +25°C° 0 mm 5 mps 754 mmHg 54%
    12:00 +26°C° 0 mm 5 mps 754 mmHg 52%
    13:00 +27°C° 0 mm 5 mps 754 mmHg 49%
    14:00 +27°C° 0 mm 5 mps 754 mmHg 47%
    15:00 +27°C° 0 mm 4 mps 754 mmHg 49%
    16:00 +27°C° 0 mm 4 mps 754 mmHg 51%
    17:00 +26°C° 0 mm 4 mps 753 mmHg 53%
    18:00 +25°C° 0 mm 4 mps 753 mmHg 58%
    19:00 +22°C° 0 mm 3 mps 753 mmHg 64%
    20:00 +20°C° 0 mm 3 mps 753 mmHg 69%
    21:00 +20°C° 0 mm 3 mps 753 mmHg 72%
    22:00 +19°C° 0 mm 3 mps 753 mmHg 75%
    23:00 +18°C° 0 mm 3 mps 753 mmHg 77%

    27 August, Tuesday

    Time Temperature Precipitation Wind Pressure Humidity
    00:00 +18°C° 0 mm 3 mps 753 mmHg 78%
    01:00 +18°C° 0 mm 3 mps 753 mmHg 79%
    02:00 +17°C° 0 mm 3 mps 753 mmHg 80%
    03:00 +17°C° 0 mm 3 mps 753 mmHg 80%
    04:00 +17°C° 0 mm 3 mps 753 mmHg 80%
    05:00 +17°C° 0 mm 3 mps 753 mmHg 80%
    06:00 +18°C° 0 mm 3 mps 753 mmHg 77%
    07:00 +19°C° 0 mm 4 mps 753 mmHg 74%
    08:00 +20°C° 0 mm 4 mps 753 mmHg 71%
    09:00 +22°C° 0 mm 4 mps 753 mmHg 66%
    10:00 +25°C° 0 mm 4 mps 753 mmHg 60%
    11:00 +26°C° 0 mm 4 mps 753 mmHg 55%
    12:00 +27°C° 0 mm 4 mps 753 mmHg 52%
    13:00 +28°C° 0 mm 4 mps 752 mmHg 49%
    14:00 +29°C° 0 mm 3 mps 752 mmHg 46%
    15:00 +29°C° 0 mm 3 mps 752 mmHg 48%
    16:00 +29°C° 0 mm 3 mps 752 mmHg 49%
    17:00 +29°C° 0 mm 3 mps 751 mmHg 50%
    18:00 +27°C° 0 mm 3 mps 751 mmHg 56%
    19:00 +25°C° 0 mm 3 mps 751 mmHg 62%
    20:00 +22°C° 0 mm 3 mps 751 mmHg 68%
    21:00 +21°C° 0 mm 3 mps 751 mmHg 69%
    22:00 +21°C° 0 mm 3 mps 751 mmHg 70%
    23:00 +20°C° 0 mm 3 mps 751 mmHg 71%
    Show more